Location: *
(0.1100°N, 5.5000°E)
Time: 11:17:34
(UTC+00:00)

Cosmos 468 Rocket - Pass Details

Date: 07 December 2022
Orbit: 744 x 779 km, 74.0° (Epoch: 07 February)

Event Time Altitude Azimuth Distance (km) Brightness Sun altitude
Rises 17:59:34 0° 187° (S) 3,188 7.7 -7.0°
Reaches altitude 10° 18:01:56 10° 185° (S) 2,265 6.8 -7.5°
Maximum altitude 18:07:01 67° 102° (ESE) 812 4.0 -8.7°
Drops below altitude 10° 18:12:09 10° 20° (NNE) 2,277 6.1 -9.9°
Sets 18:14:31 0° 17° (NNE) 3,205 6.8 -10.4°
Enters shadow 18:14:34 - 17° (NNE) 3,221 6.8 -10.4°
